Wetterdaten: Dienstag, 14.07.2015
Datum Zeit Auen-Temp. Temp gefhlt Luftfeuchte Luftdruck Regen Wind Richtung Richtung Taupunkt Windben
14.07.2015 00:00 15,6 C 15,6 C 82 % 1014,2 hPa 0,0 mm 0,0 km/h (0 Bft) O-SO 112 12,5 C 0,0 km/h (0 Bft)
14.07.2015 00:05 15,6 C 15,5 C 83 % 1014,2 hPa 0,0 mm 0,0 km/h (0 Bft) O-SO 112 12,7 C 0,0 km/h (0 Bft)
14.07.2015 00:10 15,6 C 15,5 C 83 % 1014,1 hPa 0,0 mm 0,0 km/h (0 Bft) S-SO 157 12,7 C 0,0 km/h (0 Bft)
14.07.2015 00:15 15,6 C 15,5 C 83 % 1014,1 hPa 0,0 mm 0,3 km/h (0 Bft) S 180 12,7 C 4,7 km/h (1 Bft)
14.07.2015 00:20 15,8 C 15,8 C 83 % 1014,1 hPa 0,0 mm 0,5 km/h (0 Bft) NO 45 12,9 C 0,0 km/h (0 Bft)
14.07.2015 00:25 15,8 C 15,9 C 82 % 1014,1 hPa 0,0 mm 1,3 km/h (1 Bft) S 180 12,7 C 0,0 km/h (0 Bft)
14.07.2015 00:30 15,9 C 16,0 C 82 % 1014,2 hPa 0,0 mm 1,0 km/h (0 Bft) O-NO 67 12,8 C 6,5 km/h (2 Bft)
14.07.2015 00:35 15,8 C 16,0 C 83 % 1014,2 hPa 0,0 mm 0,5 km/h (0 Bft) O-NO 67 12,9 C 0,0 km/h (0 Bft)
14.07.2015 00:40 15,7 C 15,8 C 83 % 1014,2 hPa 0,0 mm 0,0 km/h (0 Bft) SO 135 12,8 C 0,0 km/h (0 Bft)
14.07.2015 00:45 15,7 C 15,7 C 83 % 1014,2 hPa 0,0 mm 0,0 km/h (0 Bft) SO 135 12,8 C 0,0 km/h (0 Bft)
14.07.2015 00:50 15,7 C 15,7 C 83 % 1014,2 hPa 0,0 mm 0,0 km/h (0 Bft) O-NO 67 12,8 C 0,0 km/h (0 Bft)
14.07.2015 00:55 15,7 C 15,7 C 83 % 1014,2 hPa 0,0 mm 0,0 km/h (0 Bft) S-SO 157 12,8 C 0,0 km/h (0 Bft)
14.07.2015 01:00 15,8 C 15,8 C 82 % 1014,2 hPa 0,0 mm 0,3 km/h (0 Bft) S-SO 157 12,7 C 0,0 km/h (0 Bft)
14.07.2015 01:05 15,7 C 15,7 C 82 % 1014,2 hPa 0,0 mm 0,3 km/h (0 Bft) W-SW 247 12,6 C 0,0 km/h (0 Bft)
14.07.2015 01:10 15,7 C 15,6 C 83 % 1014,4 hPa 0,0 mm 0,0 km/h (0 Bft) S-SO 157 12,8 C 0,0 km/h (0 Bft)
14.07.2015 01:15 15,7 C 15,6 C 83 % 1014,4 hPa 0,0 mm 0,0 km/h (0 Bft) S-SO 157 12,8 C 0,0 km/h (0 Bft)
14.07.2015 01:20 15,7 C 15,7 C 83 % 1014,4 hPa 0,0 mm 0,0 km/h (0 Bft) S-SO 157 12,8 C 0,0 km/h (0 Bft)
14.07.2015 01:25 15,7 C 15,7 C 83 % 1014,4 hPa 0,0 mm 0,0 km/h (0 Bft) S-SO 157 12,8 C 0,0 km/h (0 Bft)
14.07.2015 01:30 15,6 C 15,7 C 82 % 1014,4 hPa 0,0 mm 0,0 km/h (0 Bft) SO 135 12,5 C 0,0 km/h (0 Bft)
14.07.2015 01:35 15,6 C 15,7 C 82 % 1014,4 hPa 0,0 mm 0,0 km/h (0 Bft) SO 135 12,5 C 0,0 km/h (0 Bft)
14.07.2015 01:40 15,7 C 15,7 C 82 % 1014,4 hPa 0,0 mm 0,3 km/h (0 Bft) S-SO 157 12,6 C 0,0 km/h (0 Bft)
14.07.2015 01:45 15,7 C 15,7 C 82 % 1014,4 hPa 0,0 mm 0,3 km/h (0 Bft) W-SW 247 12,6 C 0,0 km/h (0 Bft)
14.07.2015 01:50 15,7 C 15,7 C 82 % 1014,1 hPa 0,0 mm 0,0 km/h (0 Bft) W-SW 247 12,6 C 0,0 km/h (0 Bft)
14.07.2015 01:55 15,6 C 15,6 C 82 % 1014,1 hPa 0,0 mm 0,0 km/h (0 Bft) W-SW 247 12,5 C 0,0 km/h (0 Bft)
14.07.2015 02:00 15,6 C 15,5 C 82 % 1014,1 hPa 0,0 mm 0,0 km/h (0 Bft) W-SW 247 12,5 C 0,0 km/h (0 Bft)
14.07.2015 02:05 15,6 C 15,5 C 82 % 1014,1 hPa 0,0 mm 0,0 km/h (0 Bft) W-SW 247 12,5 C 0,0 km/h (0 Bft)
14.07.2015 02:10 15,5 C 15,5 C 82 % 1014,0 hPa 0,0 mm 0,0 km/h (0 Bft) W-SW 247 12,4 C 0,0 km/h (0 Bft)
14.07.2015 02:15 15,5 C 15,5 C 82 % 1014,0 hPa 0,0 mm 0,0 km/h (0 Bft) S-SW 202 12,4 C 0,0 km/h (0 Bft)
14.07.2015 02:20 15,5 C 15,5 C 82 % 1014,0 hPa 0,0 mm 0,0 km/h (0 Bft) W-SW 247 12,4 C 0,0 km/h (0 Bft)
14.07.2015 02:25 15,5 C 15,5 C 82 % 1014,0 hPa 0,0 mm 0,0 km/h (0 Bft) W-SW 247 12,4 C 0,0 km/h (0 Bft)
14.07.2015 02:30 15,5 C 15,5 C 82 % 1013,9 hPa 0,0 mm 0,3 km/h (0 Bft) S-SO 157 12,4 C 7,5 km/h (2 Bft)
14.07.2015 02:35 15,7 C 15,8 C 82 % 1013,9 hPa 0,0 mm 1,6 km/h (1 Bft) S 180 12,6 C 5,7 km/h (1 Bft)
14.07.2015 02:40 16,0 C 16,2 C 80 % 1013,9 hPa 0,0 mm 4,1 km/h (1 Bft) S-SW 202 12,5 C 9,3 km/h (2 Bft)
14.07.2015 02:45 16,3 C 16,4 C 80 % 1013,9 hPa 0,0 mm 5,2 km/h (1 Bft) S 180 12,8 C 6,2 km/h (2 Bft)
14.07.2015 02:50 16,7 C 16,6 C 78 % 1013,4 hPa 0,0 mm 5,7 km/h (1 Bft) W 270 12,8 C 12,4 km/h (3 Bft)
14.07.2015 02:55 16,7 C 16,7 C 78 % 1013,4 hPa 0,0 mm 4,7 km/h (1 Bft) S-SW 202 12,8 C 7,3 km/h (2 Bft)
14.07.2015 03:00 16,8 C 16,8 C 76 % 1013,4 hPa 0,0 mm 4,4 km/h (1 Bft) NO 45 12,5 C 13,2 km/h (3 Bft)
14.07.2015 03:05 16,9 C 16,9 C 76 % 1013,4 hPa 0,0 mm 4,9 km/h (1 Bft) S-SO 157 12,6 C 2,8 km/h (1 Bft)
14.07.2015 03:10 17,1 C 17,1 C 74 % 1013,9 hPa 0,0 mm 6,0 km/h (2 Bft) S-SW 202 12,4 C 10,1 km/h (2 Bft)
14.07.2015 03:15 17,2 C 17,2 C 73 % 1013,9 hPa 0,0 mm 7,0 km/h (2 Bft) SW 225 12,3 C 7,0 km/h (2 Bft)
14.07.2015 03:20 17,2 C 17,2 C 72 % 1013,9 hPa 0,0 mm 7,5 km/h (2 Bft) SW 225 12,1 C 14,2 km/h (3 Bft)
14.07.2015 03:25 17,2 C 17,3 C 72 % 1013,9 hPa 0,0 mm 7,3 km/h (2 Bft) W-SW 247 12,1 C 13,7 km/h (3 Bft)
14.07.2015 03:30 17,4 C 17,4 C 71 % 1013,9 hPa 0,0 mm 7,5 km/h (2 Bft) S-SW 202 12,1 C 8,3 km/h (2 Bft)
14.07.2015 03:35 17,4 C 17,5 C 71 % 1013,9 hPa 0,0 mm 6,7 km/h (2 Bft) W 270 12,1 C 2,6 km/h (1 Bft)
14.07.2015 03:40 17,4 C 17,4 C 71 % 1013,9 hPa 0,0 mm 5,2 km/h (1 Bft) S-SO 157 12,1 C 9,1 km/h (2 Bft)
14.07.2015 03:45 17,4 C 17,4 C 70 % 1013,9 hPa 0,0 mm 4,7 km/h (1 Bft) O-SO 112 11,9 C 4,7 km/h (1 Bft)
14.07.2015 03:50 17,4 C 17,4 C 70 % 1013,8 hPa 0,0 mm 4,7 km/h (1 Bft) SW 225 11,9 C 5,7 km/h (1 Bft)
14.07.2015 03:55 17,4 C 17,4 C 70 % 1013,8 hPa 0,0 mm 3,6 km/h (1 Bft) W-SW 247 11,9 C 4,1 km/h (1 Bft)
14.07.2015 04:00 17,3 C 17,4 C 70 % 1013,8 hPa 0,0 mm 2,6 km/h (1 Bft) SW 225 11,8 C 5,7 km/h (1 Bft)
14.07.2015 04:05 17,4 C 17,4 C 70 % 1013,8 hPa 0,0 mm 2,1 km/h (1 Bft) W-SW 247 11,9 C 3,4 km/h (1 Bft)
14.07.2015 04:10 17,3 C 17,4 C 70 % 1013,8 hPa 0,0 mm 1,8 km/h (1 Bft) SW 225 11,8 C 5,4 km/h (1 Bft)
14.07.2015 04:15 17,4 C 17,4 C 70 % 1013,8 hPa 0,0 mm 2,6 km/h (1 Bft) SW 225 11,9 C 6,7 km/h (2 Bft)
14.07.2015 04:20 17,4 C 17,4 C 70 % 1013,8 hPa 0,0 mm 3,9 km/h (1 Bft) SW 225 11,9 C 5,2 km/h (1 Bft)
14.07.2015 04:25 17,4 C 17,4 C 69 % 1013,8 hPa 0,0 mm 4,1 km/h (1 Bft) W-SW 247 11,7 C 5,2 km/h (1 Bft)
14.07.2015 04:30 17,4 C 17,4 C 69 % 1013,7 hPa 0,0 mm 3,6 km/h (1 Bft) W-SW 247 11,7 C 0,0 km/h (0 Bft)
14.07.2015 04:35 17,4 C 17,4 C 69 % 1013,7 hPa 0,0 mm 2,6 km/h (1 Bft) S 180 11,7 C 0,0 km/h (0 Bft)
14.07.2015 04:40 17,4 C 17,4 C 69 % 1013,7 hPa 0,0 mm 2,1 km/h (1 Bft) S 180 11,7 C 9,3 km/h (2 Bft)
14.07.2015 04:45 17,4 C 17,4 C 69 % 1013,7 hPa 0,0 mm 3,1 km/h (1 Bft) O-SO 112 11,7 C 7,8 km/h (2 Bft)
14.07.2015 04:50 17,4 C 17,4 C 69 % 1013,8 hPa 0,0 mm 3,9 km/h (1 Bft) W-SW 247 11,7 C 5,7 km/h (1 Bft)
14.07.2015 04:55 17,5 C 17,5 C 69 % 1013,8 hPa 0,0 mm 4,1 km/h (1 Bft) S 180 11,7 C 10,9 km/h (2 Bft)
14.07.2015 05:00 17,6 C 17,6 C 68 % 1013,8 hPa 0,0 mm 4,1 km/h (1 Bft) SW 225 11,6 C 4,7 km/h (1 Bft)
14.07.2015 05:05 17,4 C 17,5 C 69 % 1013,8 hPa 0,0 mm 3,4 km/h (1 Bft) S-SW 202 11,7 C 3,4 km/h (1 Bft)
14.07.2015 05:10 17,4 C 17,5 C 69 % 1013,8 hPa 0,0 mm 1,3 km/h (1 Bft) S-SW 202 11,7 C 0,0 km/h (0 Bft)
14.07.2015 05:15 17,5 C 17,5 C 69 % 1013,8 hPa 0,0 mm 1,3 km/h (1 Bft) W 270 11,7 C 0,0 km/h (0 Bft)
14.07.2015 05:20 17,1 C 17,4 C 69 % 1013,8 hPa 0,0 mm 0,8 km/h (0 Bft) W 270 11,4 C 0,0 km/h (0 Bft)
14.07.2015 05:25 17,0 C 17,3 C 70 % 1013,8 hPa 0,0 mm 0,3 km/h (0 Bft) S 180 11,5 C 2,8 km/h (1 Bft)
14.07.2015 05:30 16,8 C 17,2 C 71 % 1013,8 hPa 0,0 mm 0,3 km/h (0 Bft) W-SW 247 11,5 C 0,0 km/h (0 Bft)
14.07.2015 05:35 16,7 C 17,0 C 72 % 1013,8 hPa 0,0 mm 0,0 km/h (0 Bft) SW 225 11,6 C 0,0 km/h (0 Bft)
14.07.2015 05:40 16,5 C 16,8 C 73 % 1013,8 hPa 0,0 mm 0,0 km/h (0 Bft) SW 225 11,6 C 0,0 km/h (0 Bft)
14.07.2015 05:45 16,5 C 16,7 C 73 % 1013,8 hPa 0,0 mm 0,0 km/h (0 Bft) SW 225 11,6 C 0,0 km/h (0 Bft)
14.07.2015 05:50 16,6 C 16,6 C 73 % 1013,6 hPa 0,0 mm 0,0 km/h (0 Bft) SW 225 11,7 C 0,0 km/h (0 Bft)
14.07.2015 05:55 16,7 C 16,7 C 73 % 1013,6 hPa 0,0 mm 0,0 km/h (0 Bft) S 180 11,8 C 0,0 km/h (0 Bft)
14.07.2015 06:00 17,1 C 17,0 C 72 % 1013,6 hPa 0,0 mm 0,0 km/h (0 Bft) S-SO 157 12,0 C 3,1 km/h (1 Bft)
14.07.2015 06:05 17,2 C 17,1 C 71 % 1013,6 hPa 0,0 mm 0,0 km/h (0 Bft) W-SW 247 11,9 C 0,0 km/h (0 Bft)
14.07.2015 06:10 17,1 C 17,2 C 71 % 1013,9 hPa 0,0 mm 0,3 km/h (0 Bft) NW 315 11,8 C 0,0 km/h (0 Bft)
14.07.2015 06:15 16,7 C 17,2 C 72 % 1013,9 hPa 0,0 mm 0,0 km/h (0 Bft) O-NO 67 11,6 C 0,0 km/h (0 Bft)
14.07.2015 06:20 17,0 C 17,1 C 72 % 1013,9 hPa 0,0 mm 0,5 km/h (0 Bft) SW 225 11,9 C 2,6 km/h (1 Bft)
14.07.2015 06:25 17,3 C 17,4 C 71 % 1013,9 hPa 0,0 mm 1,0 km/h (0 Bft) S-SW 202 12,0 C 6,0 km/h (2 Bft)
14.07.2015 06:30 17,5 C 17,5 C 70 % 1013,9 hPa 0,0 mm 1,8 km/h (1 Bft) NW 315 12,0 C 2,8 km/h (1 Bft)
14.07.2015 06:35 17,3 C 17,5 C 70 % 1013,9 hPa 0,0 mm 2,8 km/h (1 Bft) NW 315 11,8 C 2,8 km/h (1 Bft)
14.07.2015 06:40 17,2 C 17,4 C 71 % 1013,9 hPa 0,0 mm 1,6 km/h (1 Bft) S-SO 157 11,9 C 0,0 km/h (0 Bft)
14.07.2015 06:45 17,3 C 17,4 C 71 % 1013,9 hPa 0,0 mm 0,3 km/h (0 Bft) S 180 12,0 C 0,0 km/h (0 Bft)
14.07.2015 06:50 17,2 C 17,4 C 71 % 1014,1 hPa 0,0 mm 0,3 km/h (0 Bft) NW 315 11,9 C 0,0 km/h (0 Bft)
14.07.2015 06:55 17,0 C 17,3 C 72 % 1014,1 hPa 0,0 mm 0,3 km/h (0 Bft) S 180 11,9 C 0,0 km/h (0 Bft)
14.07.2015 07:00 17,1 C 17,3 C 72 % 1014,1 hPa 0,0 mm 0,3 km/h (0 Bft) SW 225 12,0 C 0,0 km/h (0 Bft)
14.07.2015 07:05 17,2 C 17,3 C 72 % 1014,1 hPa 0,0 mm 0,3 km/h (0 Bft) SW 225 12,1 C 3,4 km/h (1 Bft)
14.07.2015 07:10 17,2 C 17,4 C 73 % 1013,9 hPa 0,0 mm 0,3 km/h (0 Bft) N-NW 337 12,3 C 0,0 km/h (0 Bft)
14.07.2015 07:15 17,2 C 17,4 C 73 % 1013,9 hPa 0,0 mm 0,3 km/h (0 Bft) S-SW 202 12,3 C 0,0 km/h (0 Bft)
14.07.2015 07:20 17,2 C 17,3 C 74 % 1013,9 hPa 0,0 mm 0,0 km/h (0 Bft) S 180 12,5 C 0,0 km/h (0 Bft)
14.07.2015 07:25 17,2 C 17,5 C 74 % 1013,9 hPa 0,0 mm 0,0 km/h (0 Bft) SW 225 12,5 C 0,0 km/h (0 Bft)
14.07.2015 07:30 17,3 C 17,6 C 74 % 1013,8 hPa 0,0 mm 0,0 km/h (0 Bft) SW 225 12,6 C 0,0 km/h (0 Bft)
14.07.2015 07:35 17,3 C 17,8 C 75 % 1013,8 hPa 0,0 mm 0,0 km/h (0 Bft) SW 225 12,8 C 0,0 km/h (0 Bft)
14.07.2015 07:40 17,4 C 17,9 C 75 % 1013,8 hPa 0,0 mm 0,0 km/h (0 Bft) SW 225 12,9 C 0,0 km/h (0 Bft)
14.07.2015 07:45 17,4 C 18,0 C 75 % 1013,8 hPa 0,0 mm 0,0 km/h (0 Bft) SW 225 12,9 C 0,0 km/h (0 Bft)
14.07.2015 07:50 17,4 C 18,0 C 75 % 1014,0 hPa 0,0 mm 0,0 km/h (0 Bft) SW 225 12,9 C 0,0 km/h (0 Bft)
14.07.2015 07:55 17,5 C 18,2 C 76 % 1014,0 hPa 0,0 mm 0,0 km/h (0 Bft) SW 225 13,2 C 0,0 km/h (0 Bft)
14.07.2015 08:00 17,9 C 18,9 C 76 % 1014,0 hPa 0,0 mm 0,0 km/h (0 Bft) SW 225 13,6 C 0,0 km/h (0 Bft)
14.07.2015 08:01 17,9 C 18,9 C 76 % 1014,0 hPa 0,0 mm 0,0 km/h (0 Bft) SW 225 13,6 C 0,0 km/h (0 Bft)
14.07.2015 08:05 17,9 C 18,9 C 76 % 1014,0 hPa 0,0 mm 0,0 km/h (0 Bft) SW 225 13,6 C 0,0 km/h (0 Bft)
14.07.2015 08:10 18,1 C 19,4 C 76 % 1014,1 hPa 0,0 mm 0,0 km/h (0 Bft) W-SW 247 13,8 C 0,0 km/h (0 Bft)
14.07.2015 08:15 18,3 C 19,8 C 76 % 1014,1 hPa 0,0 mm 0,0 km/h (0 Bft) N 360 14,0 C 0,0 km/h (0 Bft)
14.07.2015 08:20 18,6 C 20,3 C 75 % 1014,1 hPa 0,0 mm 0,3 km/h (0 Bft) N-NW 337 14,1 C 0,0 km/h (0 Bft)
14.07.2015 08:25 19,0 C 21,5 C 75 % 1014,1 hPa 0,0 mm 0,3 km/h (0 Bft) W-SW 247 14,5 C 0,0 km/h (0 Bft)
14.07.2015 08:30 19,4 C 22,1 C 74 % 1013,8 hPa 0,0 mm 0,0 km/h (0 Bft) N-NW 337 14,6 C 0,0 km/h (0 Bft)
14.07.2015 08:35 19,6 C 22,3 C 72 % 1013,8 hPa 0,0 mm 0,8 km/h (0 Bft) W 270 14,4 C 3,4 km/h (1 Bft)
14.07.2015 08:40 19,6 C 22,3 C 71 % 1013,8 hPa 0,0 mm 2,6 km/h (1 Bft) W 270 14,2 C 0,0 km/h (0 Bft)
14.07.2015 08:45 19,6 C 22,1 C 71 % 1013,8 hPa 0,0 mm 2,8 km/h (1 Bft) NW 315 14,2 C 3,9 km/h (1 Bft)
14.07.2015 08:50 19,7 C 21,9 C 70 % 1014,0 hPa 0,0 mm 1,8 km/h (1 Bft) W-SW 247 14,1 C 5,2 km/h (1 Bft)
14.07.2015 08:55 19,9 C 22,1 C 70 % 1014,0 hPa 0,0 mm 2,8 km/h (1 Bft) W 270 14,3 C 8,0 km/h (2 Bft)
14.07.2015 09:01 20,2 C 23,8 C 68 % 1014,0 hPa 0,0 mm 3,9 km/h (1 Bft) W 270 14,1 C 7,0 km/h (2 Bft)
14.07.2015 09:05 20,2 C 23,8 C 68 % 1014,0 hPa 0,0 mm 3,9 km/h (1 Bft) W 270 14,1 C 7,0 km/h (2 Bft)
14.07.2015 09:10 20,1 C 23,5 C 67 % 1014,1 hPa 0,0 mm 4,4 km/h (1 Bft) W-SW 247 13,8 C 5,2 km/h (1 Bft)
14.07.2015 09:15 20,0 C 23,0 C 67 % 1014,1 hPa 0,0 mm 4,9 km/h (1 Bft) NW 315 13,7 C 5,2 km/h (1 Bft)
14.07.2015 09:20 20,4 C 23,6 C 67 % 1014,1 hPa 0,0 mm 4,1 km/h (1 Bft) W 270 14,1 C 0,0 km/h (0 Bft)
14.07.2015 09:25 20,5 C 23,7 C 67 % 1014,1 hPa 0,0 mm 4,4 km/h (1 Bft) SW 225 14,2 C 9,1 km/h (2 Bft)
14.07.2015 09:30 20,5 C 23,5 C 67 % 1014,1 hPa 0,0 mm 5,2 km/h (1 Bft) W-NW 292 14,2 C 14,5 km/h (3 Bft)
14.07.2015 09:35 20,5 C 23,4 C 66 % 1014,1 hPa 0,0 mm 5,7 km/h (1 Bft) W-NW 292 13,9 C 5,7 km/h (1 Bft)
14.07.2015 09:40 20,7 C 23,9 C 66 % 1014,1 hPa 0,0 mm 4,7 km/h (1 Bft) W 270 14,1 C 8,8 km/h (2 Bft)
14.07.2015 09:45 20,9 C 24,3 C 66 % 1014,1 hPa 0,0 mm 3,4 km/h (1 Bft) SW 225 14,3 C 3,4 km/h (1 Bft)
14.07.2015 09:50 21,1 C 24,5 C 66 % 1014,2 hPa 0,0 mm 3,9 km/h (1 Bft) W-NW 292 14,5 C 3,4 km/h (1 Bft)
14.07.2015 09:55 21,2 C 24,5 C 66 % 1014,2 hPa 0,0 mm 3,4 km/h (1 Bft) W-NW 292 14,6 C 9,3 km/h (2 Bft)
14.07.2015 10:00 20,9 C 23,9 C 66 % 1014,2 hPa 0,0 mm 4,7 km/h (1 Bft) S-SW 202 14,3 C 4,9 km/h (1 Bft)
14.07.2015 10:05 20,7 C 23,4 C 66 % 1014,2 hPa 0,0 mm 4,4 km/h (1 Bft) S 180 14,1 C 8,0 km/h (2 Bft)
14.07.2015 10:10 20,9 C 23,7 C 66 % 1014,4 hPa 0,0 mm 3,1 km/h (1 Bft) S-SW 202 14,3 C 6,7 km/h (2 Bft)
14.07.2015 10:15 20,9 C 23,7 C 65 % 1014,4 hPa 0,0 mm 4,4 km/h (1 Bft) W-SW 247 14,1 C 4,1 km/h (1 Bft)
14.07.2015 10:20 20,9 C 23,8 C 65 % 1014,4 hPa 0,0 mm 4,9 km/h (1 Bft) NW 315 14,1 C 16,1 km/h (3 Bft)
14.07.2015 10:25 20,9 C 23,9 C 65 % 1014,4 hPa 0,0 mm 4,7 km/h (1 Bft) N 360 14,1 C 0,0 km/h (0 Bft)
14.07.2015 10:30 20,7 C 23,2 C 65 % 1014,6 hPa 0,0 mm 4,9 km/h (1 Bft) W 270 13,9 C 18,4 km/h (3 Bft)
14.07.2015 10:35 20,7 C 22,9 C 65 % 1014,6 hPa 0,0 mm 3,4 km/h (1 Bft) O-NO 67 13,9 C 2,8 km/h (1 Bft)
14.07.2015 10:40 20,4 C 22,3 C 65 % 1014,6 hPa 0,0 mm 3,4 km/h (1 Bft) S-SO 157 13,6 C 0,0 km/h (0 Bft)
14.07.2015 10:45 20,5 C 22,2 C 65 % 1014,6 hPa 0,0 mm 3,6 km/h (1 Bft) S 180 13,7 C 3,1 km/h (1 Bft)
14.07.2015 10:50 20,7 C 22,9 C 65 % 1014,2 hPa 0,0 mm 2,6 km/h (1 Bft) NW 315 13,9 C 6,0 km/h (2 Bft)
14.07.2015 10:55 20,7 C 23,2 C 65 % 1014,2 hPa 0,0 mm 2,8 km/h (1 Bft) W 270 13,9 C 2,8 km/h (1 Bft)
14.07.2015 11:00 20,9 C 23,5 C 65 % 1014,2 hPa 0,0 mm 4,1 km/h (1 Bft) S 180 14,1 C 4,9 km/h (1 Bft)
14.07.2015 11:05 21,0 C 23,8 C 64 % 1014,2 hPa 0,0 mm 5,7 km/h (1 Bft) S-SW 202 13,9 C 9,6 km/h (2 Bft)
14.07.2015 11:10 21,1 C 24,1 C 64 % 1014,4 hPa 0,0 mm 6,0 km/h (2 Bft) SW 225 14,0 C 6,0 km/h (2 Bft)
14.07.2015 11:15 21,2 C 24,5 C 64 % 1014,4 hPa 0,0 mm 4,9 km/h (1 Bft) W 270 14,1 C 11,1 km/h (2 Bft)
14.07.2015 11:20 21,2 C 24,7 C 63 % 1014,4 hPa 0,0 mm 4,9 km/h (1 Bft) W-SW 247 13,9 C 3,9 km/h (1 Bft)
14.07.2015 11:25 21,2 C 24,9 C 64 % 1014,4 hPa 0,0 mm 4,9 km/h (1 Bft) W-NW 292 14,1 C 6,2 km/h (2 Bft)
14.07.2015 11:30 21,6 C 25,1 C 63 % 1014,2 hPa 0,0 mm 5,2 km/h (1 Bft) S 180 14,2 C 12,7 km/h (3 Bft)
14.07.2015 11:35 21,5 C 25,1 C 63 % 1014,2 hPa 0,0 mm 6,7 km/h (2 Bft) W 270 14,2 C 6,7 km/h (2 Bft)
14.07.2015 11:40 21,7 C 25,3 C 64 % 1014,2 hPa 0,0 mm 6,0 km/h (2 Bft) W 270 14,6 C 19,2 km/h (3 Bft)
14.07.2015 11:45 21,7 C 25,1 C 62 % 1014,2 hPa 0,0 mm 7,3 km/h (2 Bft) S 180 14,1 C 7,3 km/h (2 Bft)
14.07.2015 11:50 21,6 C 24,8 C 62 % 1014,3 hPa 0,0 mm 10,1 km/h (2 Bft) SW 225 14,0 C 22,8 km/h (4 Bft)
14.07.2015 11:55 21,6 C 24,8 C 62 % 1014,3 hPa 0,0 mm 9,8 km/h (2 Bft) W-SW 247 14,0 C 15,8 km/h (3 Bft)
14.07.2015 12:00 21,5 C 24,6 C 62 % 1014,3 hPa 0,0 mm 10,1 km/h (2 Bft) W 270 13,9 C 14,2 km/h (3 Bft)
14.07.2015 12:05 21,7 C 24,5 C 62 % 1014,3 hPa 0,0 mm 9,8 km/h (2 Bft) W-NW 292 14,1 C 8,5 km/h (2 Bft)
14.07.2015 12:10 21,9 C 24,8 C 62 % 1014,1 hPa 0,0 mm 10,1 km/h (2 Bft) NW 315 14,3 C 14,5 km/h (3 Bft)
14.07.2015 12:15 22,1 C 24,9 C 62 % 1014,1 hPa 0,0 mm 9,6 km/h (2 Bft) W-NW 292 14,5 C 5,2 km/h (1 Bft)
14.07.2015 12:20 22,4 C 25,5 C 62 % 1014,1 hPa 0,0 mm 7,5 km/h (2 Bft) NW 315 14,8 C 11,1 km/h (2 Bft)
14.07.2015 12:25 22,5 C 25,7 C 61 % 1014,1 hPa 0,0 mm 7,5 km/h (2 Bft) NW 315 14,6 C 10,9 km/h (2 Bft)
14.07.2015 12:30 22,7 C 26,3 C 62 % 1014,2 hPa 0,0 mm 8,0 km/h (2 Bft) W-NW 292 15,0 C 11,9 km/h (2 Bft)
14.07.2015 12:35 23,0 C 26,6 C 60 % 1014,2 hPa 0,0 mm 6,5 km/h (2 Bft) W 270 14,8 C 18,9 km/h (3 Bft)
14.07.2015 12:40 23,3 C 26,7 C 60 % 1014,2 hPa 0,0 mm 8,0 km/h (2 Bft) NW 315 15,1 C 9,6 km/h (2 Bft)
14.07.2015 12:45 23,6 C 26,9 C 59 % 1014,2 hPa 0,0 mm 9,6 km/h (2 Bft) W 270 15,1 C 20,7 km/h (4 Bft)
14.07.2015 12:50 24,1 C 27,7 C 59 % 1014,1 hPa 0,0 mm 10,9 km/h (2 Bft) W 270 15,6 C 14,5 km/h (3 Bft)
14.07.2015 12:55 24,4 C 28,5 C 58 % 1014,1 hPa 0,0 mm 10,6 km/h (2 Bft) W 270 15,6 C 7,0 km/h (2 Bft)
14.07.2015 13:00 24,6 C 29,0 C 57 % 1014,1 hPa 0,0 mm 9,3 km/h (2 Bft) NW 315 15,5 C 11,4 km/h (2 Bft)
14.07.2015 13:05 24,8 C 29,2 C 56 % 1014,1 hPa 0,0 mm 9,1 km/h (2 Bft) W 270 15,4 C 10,4 km/h (2 Bft)
14.07.2015 13:10 24,6 C 28,9 C 56 % 1014,5 hPa 0,0 mm 11,7 km/h (2 Bft) W 270 15,2 C 12,4 km/h (3 Bft)
14.07.2015 13:15 24,6 C 28,6 C 56 % 1014,5 hPa 0,0 mm 12,9 km/h (3 Bft) W-NW 292 15,2 C 12,2 km/h (2 Bft)
14.07.2015 13:20 24,5 C 28,2 C 55 % 1014,5 hPa 0,0 mm 11,9 km/h (2 Bft) W-NW 292 14,9 C 10,4 km/h (2 Bft)
14.07.2015 13:25 24,4 C 27,6 C 55 % 1014,5 hPa 0,0 mm 11,9 km/h (2 Bft) W 270 14,8 C 14,8 km/h (3 Bft)
14.07.2015 13:30 24,6 C 27,9 C 55 % 1014,4 hPa 0,0 mm 10,1 km/h (2 Bft) S-SO 157 14,9 C 6,5 km/h (2 Bft)
14.07.2015 13:35 24,5 C 27,9 C 56 % 1014,4 hPa 0,0 mm 7,8 km/h (2 Bft) N-NW 337 15,1 C 8,0 km/h (2 Bft)
14.07.2015 13:40 24,6 C 27,9 C 56 % 1014,4 hPa 0,0 mm 8,5 km/h (2 Bft) W 270 15,2 C 22,5 km/h (4 Bft)
14.07.2015 13:45 24,7 C 27,9 C 56 % 1014,4 hPa 0,0 mm 9,8 km/h (2 Bft) S 180 15,3 C 5,4 km/h (1 Bft)
14.07.2015 13:50 24,6 C 28,4 C 53 % 1014,2 hPa 0,0 mm 10,9 km/h (2 Bft) NW 315 14,4 C 23,0 km/h (4 Bft)
14.07.2015 13:55 24,4 C 28,1 C 54 % 1014,2 hPa 0,0 mm 10,9 km/h (2 Bft) W-NW 292 14,5 C 24,1 km/h (4 Bft)
14.07.2015 14:00 24,4 C 27,7 C 54 % 1014,2 hPa 0,0 mm 11,7 km/h (2 Bft) NO 45 14,5 C 11,4 km/h (2 Bft)
14.07.2015 14:02 24,3 C 27,5 C 54 % 1014,2 hPa 0,0 mm 12,4 km/h (3 Bft) W 270 14,4 C 24,6 km/h (4 Bft)
14.07.2015 14:05 24,3 C 27,5 C 54 % 1014,2 hPa 0,0 mm 12,4 km/h (3 Bft) W 270 14,4 C 24,6 km/h (4 Bft)
14.07.2015 14:10 24,5 C 27,8 C 53 % 1014,4 hPa 0,0 mm 12,9 km/h (3 Bft) SW 225 14,3 C 14,5 km/h (3 Bft)
14.07.2015 14:15 24,6 C 28,7 C 54 % 1014,4 hPa 0,0 mm 11,9 km/h (2 Bft) W-SW 247 14,7 C 12,2 km/h (2 Bft)
14.07.2015 14:20 25,0 C 29,0 C 54 % 1014,4 hPa 0,0 mm 10,9 km/h (2 Bft) NW 315 15,0 C 20,5 km/h (4 Bft)
14.07.2015 14:25 24,9 C 28,9 C 53 % 1014,4 hPa 0,0 mm 11,7 km/h (2 Bft) W-SW 247 14,6 C 5,2 km/h (1 Bft)
14.07.2015 14:30 25,3 C 29,1 C 53 % 1014,3 hPa 0,0 mm 10,9 km/h (2 Bft) W-SW 247 15,0 C 32,1 km/h (5 Bft)
14.07.2015 14:35 25,3 C 29,1 C 53 % 1014,3 hPa 0,0 mm 10,6 km/h (2 Bft) NW 315 15,0 C 17,3 km/h (3 Bft)
14.07.2015 14:40 25,3 C 28,9 C 52 % 1014,3 hPa 0,0 mm 14,2 km/h (3 Bft) W-NW 292 14,7 C 33,4 km/h (5 Bft)
14.07.2015 14:45 25,2 C 28,8 C 52 % 1014,3 hPa 0,0 mm 14,2 km/h (3 Bft) S-SO 157 14,6 C 22,0 km/h (4 Bft)
14.07.2015 14:50 25,0 C 28,8 C 52 % 1014,1 hPa 0,0 mm 12,7 km/h (3 Bft) W-SW 247 14,4 C 14,8 km/h (3 Bft)
14.07.2015 14:55 25,1 C 28,7 C 53 % 1014,1 hPa 0,0 mm 12,4 km/h (3 Bft) S 180 14,8 C 7,3 km/h (2 Bft)
14.07.2015 15:00 25,4 C 29,2 C 53 % 1014,1 hPa 0,0 mm 10,6 km/h (2 Bft) N-NO 22 15,1 C 18,1 km/h (3 Bft)
14.07.2015 15:05 25,3 C 29,4 C 53 % 1014,1 hPa 0,0 mm 8,8 km/h (2 Bft) S-SO 157 15,0 C 11,1 km/h (2 Bft)
14.07.2015 15:10 25,5 C 29,3 C 53 % 1013,9 hPa 0,0 mm 8,0 km/h (2 Bft) N-NO 22 15,2 C 9,8 km/h (2 Bft)
14.07.2015 15:15 25,8 C 29,8 C 53 % 1013,9 hPa 0,0 mm 6,7 km/h (2 Bft) S 180 15,5 C 11,7 km/h (2 Bft)
14.07.2015 15:20 25,7 C 29,9 C 53 % 1013,9 hPa 0,0 mm 7,8 km/h (2 Bft) S 180 15,4 C 6,7 km/h (2 Bft)
14.07.2015 15:25 25,8 C 30,2 C 53 % 1013,9 hPa 0,0 mm 8,3 km/h (2 Bft) W-NW 292 15,5 C 20,2 km/h (4 Bft)
14.07.2015 15:30 25,8 C 30,4 C 52 % 1014,0 hPa 0,0 mm 7,5 km/h (2 Bft) S 180 15,2 C 32,1 km/h (5 Bft)
14.07.2015 15:35 25,6 C 29,8 C 52 % 1014,0 hPa 0,0 mm 9,6 km/h (2 Bft) W 270 15,0 C 10,6 km/h (2 Bft)
14.07.2015 15:40 25,4 C 29,2 C 53 % 1014,0 hPa 0,0 mm 10,6 km/h (2 Bft) SW 225 15,1 C 8,3 km/h (2 Bft)
14.07.2015 15:45 25,6 C 29,1 C 53 % 1014,0 hPa 0,0 mm 8,5 km/h (2 Bft) W-SW 247 15,3 C 10,6 km/h (2 Bft)
14.07.2015 15:50 25,8 C 29,9 C 53 % 1013,8 hPa 0,0 mm 5,7 km/h (1 Bft) W-NW 292 15,5 C 4,4 km/h (1 Bft)
14.07.2015 15:55 25,8 C 29,8 C 53 % 1013,8 hPa 0,0 mm 7,5 km/h (2 Bft) N-NW 337 15,5 C 16,8 km/h (3 Bft)
14.07.2015 16:00 25,7 C 29,5 C 52 % 1013,8 hPa 0,0 mm 11,7 km/h (2 Bft) W 270 15,1 C 14,5 km/h (3 Bft)
14.07.2015 16:05 25,8 C 29,5 C 53 % 1013,8 hPa 0,0 mm 11,7 km/h (2 Bft) W 270 15,5 C 7,0 km/h (2 Bft)
14.07.2015 16:10 25,8 C 29,8 C 52 % 1013,7 hPa 0,0 mm 9,3 km/h (2 Bft) N-NW 337 15,2 C 12,9 km/h (3 Bft)
14.07.2015 16:15 25,5 C 29,5 C 52 % 1013,7 hPa 0,0 mm 9,8 km/h (2 Bft) SO 135 14,9 C 6,2 km/h (2 Bft)
14.07.2015 16:20 25,3 C 29,6 C 53 % 1013,7 hPa 0,0 mm 9,6 km/h (2 Bft) SW 225 15,0 C 6,7 km/h (2 Bft)
14.07.2015 16:25 25,1 C 29,9 C 51 % 1013,7 hPa 0,0 mm 8,8 km/h (2 Bft) W 270 14,2 C 13,2 km/h (3 Bft)
14.07.2015 16:30 24,8 C 29,6 C 50 % 1013,8 hPa 0,0 mm 11,4 km/h (2 Bft) W-SW 247 13,7 C 15,3 km/h (3 Bft)
14.07.2015 16:35 24,7 C 29,6 C 52 % 1013,8 hPa 0,0 mm 10,4 km/h (2 Bft) S-SO 157 14,2 C 8,8 km/h (2 Bft)
14.07.2015 16:40 24,8 C 29,7 C 51 % 1013,8 hPa 0,0 mm 9,6 km/h (2 Bft) W 270 14,0 C 12,9 km/h (3 Bft)
14.07.2015 16:45 24,8 C 29,7 C 51 % 1013,8 hPa 0,0 mm 10,9 km/h (2 Bft) NW 315 14,0 C 24,6 km/h (4 Bft)
14.07.2015 16:50 24,8 C 29,6 C 50 % 1013,5 hPa 0,0 mm 10,1 km/h (2 Bft) W-SW 247 13,7 C 5,7 km/h (1 Bft)
14.07.2015 16:55 24,8 C 29,8 C 51 % 1013,5 hPa 0,0 mm 10,6 km/h (2 Bft) NW 315 14,0 C 12,4 km/h (3 Bft)
14.07.2015 17:00 24,9 C 30,0 C 52 % 1013,5 hPa 0,0 mm 8,0 km/h (2 Bft) W 270 14,4 C 12,4 km/h (3 Bft)
14.07.2015 17:05 24,9 C 29,8 C 52 % 1013,5 hPa 0,0 mm 9,1 km/h (2 Bft) W 270 14,4 C 11,4 km/h (2 Bft)
14.07.2015 17:10 24,9 C 28,4 C 52 % 1013,7 hPa 0,0 mm 9,3 km/h (2 Bft) N 360 14,4 C 4,7 km/h (1 Bft)
14.07.2015 17:15 25,0 C 27,7 C 51 % 1013,7 hPa 0,0 mm 8,3 km/h (2 Bft) W 270 14,1 C 17,1 km/h (3 Bft)
14.07.2015 17:20 25,0 C 26,9 C 52 % 1013,7 hPa 0,0 mm 8,0 km/h (2 Bft) W-NW 292 14,4 C 11,4 km/h (2 Bft)
14.07.2015 17:25 25,0 C 26,8 C 51 % 1013,7 hPa 0,0 mm 9,6 km/h (2 Bft) W-NW 292 14,1 C 18,6 km/h (3 Bft)
14.07.2015 17:30 25,0 C 26,5 C 51 % 1013,8 hPa 0,0 mm 10,1 km/h (2 Bft) W 270 14,1 C 33,7 km/h (5 Bft)
14.07.2015 17:35 24,8 C 26,2 C 50 % 1013,8 hPa 0,0 mm 11,7 km/h (2 Bft) W-SW 247 13,7 C 12,2 km/h (2 Bft)
14.07.2015 17:40 24,6 C 25,8 C 51 % 1013,8 hPa 0,0 mm 11,7 km/h (2 Bft) W-SW 247 13,8 C 9,3 km/h (2 Bft)
14.07.2015 17:45 24,6 C 25,8 C 50 % 1013,8 hPa 0,0 mm 9,3 km/h (2 Bft) NW 315 13,5 C 2,6 km/h (1 Bft)
14.07.2015 17:50 24,6 C 26,2 C 51 % 1013,6 hPa 0,0 mm 7,5 km/h (2 Bft) W-SW 247 13,8 C 7,8 km/h (2 Bft)
14.07.2015 17:55 24,6 C 26,3 C 50 % 1013,6 hPa 0,0 mm 6,2 km/h (2 Bft) W-SW 247 13,5 C 8,8 km/h (2 Bft)
14.07.2015 18:00 24,6 C 26,5 C 51 % 1013,6 hPa 0,0 mm 6,7 km/h (2 Bft) W 270 13,8 C 10,9 km/h (2 Bft)
14.07.2015 18:05 24,6 C 26,6 C 51 % 1013,6 hPa 0,0 mm 6,2 km/h (2 Bft) W 270 13,8 C 7,5 km/h (2 Bft)
14.07.2015 18:10 24,7 C 26,6 C 51 % 1013,6 hPa 0,0 mm 7,5 km/h (2 Bft) SW 225 13,9 C 4,9 km/h (1 Bft)
14.07.2015 18:15 24,6 C 26,4 C 51 % 1013,6 hPa 0,0 mm 7,3 km/h (2 Bft) W 270 13,8 C 3,9 km/h (1 Bft)
14.07.2015 18:20 24,4 C 26,1 C 51 % 1013,6 hPa 0,0 mm 3,9 km/h (1 Bft) NW 315 13,6 C 0,0 km/h (0 Bft)
14.07.2015 18:25 24,3 C 25,9 C 52 % 1013,6 hPa 0,0 mm 1,8 km/h (1 Bft) S 180 13,8 C 0,0 km/h (0 Bft)
14.07.2015 18:30 23,9 C 25,7 C 50 % 1013,6 hPa 0,0 mm 3,1 km/h (1 Bft) SW 225 12,8 C 7,0 km/h (2 Bft)
14.07.2015 18:35 24,0 C 25,6 C 51 % 1013,6 hPa 0,0 mm 3,9 km/h (1 Bft) SW 225 13,2 C 10,9 km/h (2 Bft)
14.07.2015 18:40 24,0 C 25,7 C 51 % 1013,6 hPa 0,0 mm 4,1 km/h (1 Bft) SW 225 13,2 C 6,0 km/h (2 Bft)
14.07.2015 18:45 24,1 C 25,8 C 51 % 1013,6 hPa 0,0 mm 3,9 km/h (1 Bft) S-SW 202 13,3 C 4,1 km/h (1 Bft)
14.07.2015 18:50 24,0 C 26,2 C 51 % 1013,7 hPa 0,0 mm 1,6 km/h (1 Bft) W 270 13,2 C 0,0 km/h (0 Bft)
14.07.2015 18:55 23,9 C 26,5 C 53 % 1013,7 hPa 0,0 mm 1,6 km/h (1 Bft) S-SW 202 13,7 C 3,9 km/h (1 Bft)
14.07.2015 19:00 23,8 C 27,1 C 53 % 1013,7 hPa 0,0 mm 2,8 km/h (1 Bft) S-SO 157 13,6 C 5,7 km/h (1 Bft)
14.07.2015 19:05 23,7 C 27,0 C 53 % 1013,7 hPa 0,0 mm 3,4 km/h (1 Bft) S 180 13,5 C 0,0 km/h (0 Bft)
14.07.2015 19:10 23,3 C 26,4 C 53 % 1013,6 hPa 0,0 mm 3,6 km/h (1 Bft) S-SO 157 13,2 C 4,4 km/h (1 Bft)
14.07.2015 19:15 23,4 C 26,6 C 53 % 1013,6 hPa 0,0 mm 3,4 km/h (1 Bft) W-SW 247 13,3 C 4,4 km/h (1 Bft)
14.07.2015 19:20 23,5 C 27,1 C 53 % 1013,6 hPa 0,0 mm 2,8 km/h (1 Bft) S 180 13,4 C 2,8 km/h (1 Bft)
14.07.2015 19:25 23,6 C 27,7 C 53 % 1013,6 hPa 0,0 mm 3,1 km/h (1 Bft) W 270 13,4 C 7,3 km/h (2 Bft)
14.07.2015 19:30 23,5 C 27,9 C 53 % 1013,5 hPa 0,0 mm 4,1 km/h (1 Bft) SO 135 13,4 C 4,4 km/h (1 Bft)
14.07.2015 19:35 23,6 C 27,6 C 52 % 1013,5 hPa 0,0 mm 6,0 km/h (2 Bft) W-SW 247 13,2 C 9,6 km/h (2 Bft)
14.07.2015 19:40 23,6 C 27,1 C 51 % 1013,5 hPa 0,0 mm 7,3 km/h (2 Bft) S-SO 157 12,9 C 4,7 km/h (1 Bft)
14.07.2015 19:45 23,6 C 27,0 C 50 % 1013,5 hPa 0,0 mm 7,0 km/h (2 Bft) W 270 12,6 C 14,0 km/h (3 Bft)
14.07.2015 19:50 23,7 C 26,6 C 50 % 1013,6 hPa 0,0 mm 6,7 km/h (2 Bft) W-NW 292 12,6 C 21,2 km/h (4 Bft)
14.07.2015 19:55 23,5 C 26,4 C 50 % 1013,6 hPa 0,0 mm 6,0 km/h (2 Bft) W-NW 292 12,5 C 3,9 km/h (1 Bft)
14.07.2015 20:00 23,4 C 26,2 C 50 % 1013,6 hPa 0,0 mm 4,9 km/h (1 Bft) S 180 12,4 C 4,7 km/h (1 Bft)
14.07.2015 20:03 23,3 C 26,1 C 51 % 1013,6 hPa 0,0 mm 4,4 km/h (1 Bft) W 270 12,6 C 2,8 km/h (1 Bft)
14.07.2015 20:05 23,3 C 26,1 C 51 % 1013,6 hPa 0,0 mm 4,4 km/h (1 Bft) W 270 12,6 C 2,8 km/h (1 Bft)
14.07.2015 20:10 22,9 C 25,8 C 52 % 1013,7 hPa 0,0 mm 2,6 km/h (1 Bft) W 270 12,5 C 0,0 km/h (0 Bft)
14.07.2015 20:15 22,7 C 25,8 C 54 % 1013,7 hPa 0,0 mm 1,0 km/h (0 Bft) S-SO 157 12,9 C 0,0 km/h (0 Bft)
14.07.2015 20:20 22,4 C 25,6 C 54 % 1013,7 hPa 0,0 mm 0,3 km/h (0 Bft) SW 225 12,6 C 0,0 km/h (0 Bft)
14.07.2015 20:25 22,4 C 25,4 C 54 % 1013,7 hPa 0,0 mm 0,5 km/h (0 Bft) SW 225 12,6 C 2,6 km/h (1 Bft)
14.07.2015 20:30 22,1 C 24,9 C 55 % 1013,8 hPa 0,0 mm 1,8 km/h (1 Bft) S 180 12,6 C 5,7 km/h (1 Bft)
14.07.2015 20:35 22,1 C 24,6 C 55 % 1013,8 hPa 0,0 mm 2,6 km/h (1 Bft) S 180 12,6 C 3,6 km/h (1 Bft)
14.07.2015 20:40 21,9 C 23,9 C 55 % 1013,8 hPa 0,0 mm 4,1 km/h (1 Bft) S 180 12,4 C 6,0 km/h (2 Bft)
14.07.2015 20:45 21,8 C 23,5 C 55 % 1013,8 hPa 0,0 mm 4,4 km/h (1 Bft) S 180 12,4 C 4,1 km/h (1 Bft)
14.07.2015 20:50 21,2 C 22,9 C 56 % 1014,1 hPa 0,0 mm 2,6 km/h (1 Bft) N-NW 337 12,1 C 0,0 km/h (0 Bft)
14.07.2015 20:55 20,7 C 22,2 C 56 % 1014,1 hPa 0,0 mm 0,8 km/h (0 Bft) S 180 11,6 C 0,0 km/h (0 Bft)
14.07.2015 21:00 20,5 C 21,2 C 58 % 1014,1 hPa 0,0 mm 0,3 km/h (0 Bft) SW 225 11,9 C 3,6 km/h (1 Bft)
14.07.2015 21:05 20,7 C 20,8 C 58 % 1014,1 hPa 0,0 mm 1,3 km/h (1 Bft) S 180 12,1 C 4,7 km/h (1 Bft)
14.07.2015 21:10 20,8 C 20,7 C 59 % 1014,4 hPa 0,0 mm 2,3 km/h (1 Bft) S-SO 157 12,5 C 3,1 km/h (1 Bft)
14.07.2015 21:15 20,1 C 20,4 C 61 % 1014,4 hPa 0,0 mm 2,3 km/h (1 Bft) S 180 12,3 C 3,6 km/h (1 Bft)
14.07.2015 21:20 19,8 C 20,0 C 64 % 1014,4 hPa 0,0 mm 2,3 km/h (1 Bft) S 180 12,8 C 3,6 km/h (1 Bft)
14.07.2015 21:25 19,4 C 19,7 C 64 % 1014,4 hPa 0,0 mm 2,6 km/h (1 Bft) O-SO 112 12,4 C 2,6 km/h (1 Bft)
14.07.2015 21:30 19,1 C 19,3 C 66 % 1014,4 hPa 0,0 mm 1,8 km/h (1 Bft) SO 135 12,6 C 0,0 km/h (0 Bft)
14.07.2015 21:35 19,2 C 19,2 C 66 % 1014,4 hPa 0,0 mm 1,3 km/h (1 Bft) S 180 12,7 C 3,1 km/h (1 Bft)
14.07.2015 21:40 18,6 C 18,9 C 66 % 1014,4 hPa 0,0 mm 1,6 km/h (1 Bft) N 360 12,1 C 0,0 km/h (0 Bft)
14.07.2015 21:45 18,3 C 18,4 C 68 % 1014,4 hPa 0,0 mm 1,3 km/h (1 Bft) SO 135 12,3 C 0,0 km/h (0 Bft)
14.07.2015 21:50 18,0 C 18,1 C 69 % 1014,7 hPa 0,0 mm 0,0 km/h (0 Bft) SO 135 12,2 C 0,0 km/h (0 Bft)
14.07.2015 21:55 17,7 C 17,9 C 70 % 1014,7 hPa 0,0 mm 0,0 km/h (0 Bft) O-NO 67 12,2 C 0,0 km/h (0 Bft)
14.07.2015 22:00 17,3 C 17,5 C 70 % 1014,7 hPa 0,0 mm 0,0 km/h (0 Bft) O-SO 112 11,8 C 0,0 km/h (0 Bft)
14.07.2015 22:05 17,2 C 17,5 C 71 % 1014,7 hPa 0,0 mm 0,3 km/h (0 Bft) S-SO 157 11,9 C 3,6 km/h (1 Bft)
14.07.2015 22:10 17,2 C 17,2 C 72 % 1014,9 hPa 0,0 mm 0,8 km/h (0 Bft) NO 45 12,1 C 0,0 km/h (0 Bft)
14.07.2015 22:15 16,8 C 16,9 C 72 % 1014,9 hPa 0,0 mm 0,8 km/h (0 Bft) SO 135 11,7 C 0,0 km/h (0 Bft)
14.07.2015 22:20 16,8 C 16,7 C 72 % 1014,9 hPa 0,0 mm 0,0 km/h (0 Bft) O-NO 67 11,7 C 0,0 km/h (0 Bft)
14.07.2015 22:25 16,6 C 16,5 C 74 % 1014,9 hPa 0,0 mm 0,0 km/h (0 Bft) SO 135 11,9 C 0,0 km/h (0 Bft)
14.07.2015 22:30 16,6 C 16,5 C 73 % 1014,9 hPa 0,0 mm 0,0 km/h (0 Bft) S 180 11,7 C 0,0 km/h (0 Bft)
14.07.2015 22:35 16,6 C 16,4 C 74 % 1014,9 hPa 0,0 mm 0,0 km/h (0 Bft) W-NW 292 11,9 C 0,0 km/h (0 Bft)
14.07.2015 22:40 16,1 C 15,9 C 74 % 1014,9 hPa 0,0 mm 0,0 km/h (0 Bft) NW 315 11,5 C 0,0 km/h (0 Bft)
14.07.2015 22:45 15,9 C 15,7 C 76 % 1014,9 hPa 0,0 mm 0,0 km/h (0 Bft) S-SO 157 11,7 C 0,0 km/h (0 Bft)
14.07.2015 22:50 15,9 C 15,6 C 76 % 1014,9 hPa 0,0 mm 0,0 km/h (0 Bft) S-SO 157 11,7 C 0,0 km/h (0 Bft)
14.07.2015 22:55 15,7 C 15,5 C 76 % 1014,9 hPa 0,0 mm 0,0 km/h (0 Bft) S-SW 202 11,5 C 0,0 km/h (0 Bft)
14.07.2015 23:00 15,9 C 15,7 C 76 % 1014,9 hPa 0,0 mm 0,0 km/h (0 Bft) SO 135 11,7 C 0,0 km/h (0 Bft)
14.07.2015 23:05 15,8 C 15,6 C 76 % 1014,9 hPa 0,0 mm 0,0 km/h (0 Bft) NW 315 11,6 C 0,0 km/h (0 Bft)
14.07.2015 23:10 15,6 C 15,4 C 77 % 1015,2 hPa 0,0 mm 0,0 km/h (0 Bft) SO 135 11,6 C 0,0 km/h (0 Bft)
14.07.2015 23:15 15,4 C 15,2 C 77 % 1015,2 hPa 0,0 mm 0,0 km/h (0 Bft) O-NO 67 11,4 C 0,0 km/h (0 Bft)
14.07.2015 23:20 15,3 C 15,1 C 78 % 1015,2 hPa 0,0 mm 0,0 km/h (0 Bft) SO 135 11,5 C 0,0 km/h (0 Bft)
14.07.2015 23:25 15,3 C 15,1 C 78 % 1015,2 hPa 0,0 mm 0,0 km/h (0 Bft) NW 315 11,5 C 0,0 km/h (0 Bft)
14.07.2015 23:30 15,1 C 15,0 C 78 % 1015,2 hPa 0,0 mm 0,0 km/h (0 Bft) O-SO 112 11,3 C 0,0 km/h (0 Bft)
14.07.2015 23:35 15,0 C 14,9 C 78 % 1015,2 hPa 0,0 mm 0,0 km/h (0 Bft) S-SO 157 11,2 C 0,0 km/h (0 Bft)
14.07.2015 23:40 15,3 C 15,2 C 79 % 1015,2 hPa 0,0 mm 0,3 km/h (0 Bft) NW 315 11,7 C 0,0 km/h (0 Bft)
14.07.2015 23:45 15,1 C 15,0 C 79 % 1015,2 hPa 0,0 mm 0,3 km/h (0 Bft) N-NO 22 11,5 C 0,0 km/h (0 Bft)
14.07.2015 23:50 14,9 C 14,8 C 79 % 1015,2 hPa 0,0 mm 0,0 km/h (0 Bft) N-NO 22 11,3 C 0,0 km/h (0 Bft)
14.07.2015 23:55 14,9 C 14,7 C 79 % 1015,2 hPa 0,0 mm 0,0 km/h (0 Bft) O-SO 112 11,3 C 0,0 km/h (0 Bft)
_ Min-Zeit 23:55 23:55 20:00 03:05 - 23:55 - - 23:35 23:55
Minimum _ 14,9 C 14,7 C 50 % 1013,4 hPa - 0,0 km/h (0 Bft) - - 11,2 C 0,0 km/h (0 Bft)
_ Max-Zeit 16:10 15:30 01:25 23:55 23:55 14:45 - - 12:55 17:30
Maximum _ 25,8 C 30,4 C 83 % 1015,2 hPa 0,0 mm 14,2 km/h
S-SO (3 Bft)
- - 15,6 C 33,7 km/h
W (5 Bft)
Durchschnitt _ 20,2 C 21,9 C 65 % 1014,1 hPa #0,0 mm 4,2 km/h (1 Bft) W - 13,2 C 6,0 km/h (2 Bft)